Weather Roundup
Issued by NWS

Home | Current Version | Previous Version | Text Only | Print | Product List | Glossary On
Versions: 1 2 3 4 5 6 7 8 9 10 11 12 13 14 15 16 17 18 19 20 21 22 23 24 25 26 27 28 29 30 31 32 33 34 35 36 37 38 39 40 41 42 43 44 45 46 47 48 49 50
000
NZUS93 KARX 210010
HRRWXR

CURRENT HOURLY OBSERVATIONS ACROSS
MUCH OF THE UPPER MISSISSIPPI VALLEY
NATIONAL WEATHER SERVICE LA CROSSE WI
700 PM CDT SAT SEP 20 2014


...SOUTHEAST MINNESOTA...


CITY           SKY/WX    TMP DP  RH WIND       PRES   REMARKS
ROCHESTER      HVY RAIN  62  58  86 NW23G35   29.83R FOG
ROCHESTER/MAYO CLOUDY    67  57  71 W16G26    29.79R
WINONA         PTCLDY    73  55  53 N3        29.72F
AUSTIN         HVY RAIN  64  57  77 NW33G46   29.82R
ALBERT LEA     HVY RAIN  61  61 100 N18G35    29.82R
DODGE CENTER   TSTM      59  57  94 NW20G28   29.85R
PRESTON        MOCLDY    70  61  71 SE3       29.73F
OWATONNA       LGT RAIN  61  57  88 N15       29.82R
FARIBAULT      LGT RAIN  63  57  82 CALM      29.81F
$$

...ELSEWHERE IN MINNESOTA...


CITY           SKY/WX    TMP DP  RH WIND       PRES   REMARKS
MINNEAPOLIS    CLOUDY    60  57  89 NW7       29.78S
INTNL FALLS    CLOUDY    55  50  83 NW7       29.72R
DULUTH         RAIN      56  51  84 NW15G25   29.69S
RED WING       RAIN      63  57  82 NW17G30   29.81R
REDWOOD FALLS  PTCLDY    62  57  83 NW9       29.88R
MANKATO        CLOUDY    61  54  77 NW6       29.84R
WORTHINGTON    CLEAR     66  48  52 N24G33    29.92R
FAIRMONT       CLOUDY    63  54  72 N13G20    29.86R
$$

...SOUTHWEST WISCONSIN...


CITY           SKY/WX    TMP DP  RH WIND       PRES   REMARKS
LA CROSSE      PTCLDY    71  58  63 SW5       29.72F
PRAIRIE DU CHI CLEAR     73  57  59 SW3       29.75F
BOSCOBEL       CLEAR     74  58  57 SW3       29.75S
LONE ROCK      CLEAR     76  59  55 W6        29.74F
PLATTEVILLE    CLEAR     71  62  71 W7        29.78F
FORT MC COY    PTCLDY    66  59  76 CALM      29.74F
CAMP DOUGLAS   CLEAR     64  59  84 SW3       29.73F
VIROQUA        FAIR      67  57  70 W7        29.75F
WIS DELLS      CLEAR     68  59  73 SW3       29.74F
$$

...ELSEWHERE IN WISCONSIN...


CITY           SKY/WX    TMP DP  RH WIND       PRES   REMARKS
MILWAUKEE      PTCLDY    72  62  71 SW10      29.74S
MADISON        MOCLDY    73  62  68 CALM      29.75S
GREEN BAY      CLEAR     68  60  75 W8        29.68S
EAU CLAIRE     CLOUDY    68  55  63 CALM      29.72S
BLACK RVR FLS  FAIR      67  57  69 CALM      29.72F
MEDFORD        PTCLDY    63  55  74 CALM      29.72F
WAUSAU         CLEAR     67  56  67 W7        29.70S
WIS RAPIDS     CLEAR     66  57  72 SW5       29.73F
MARSHFIELD     CLEAR     66  56  70 W6        29.72S
RICE LAKE      HVY RAIN  65  56  71 CALM      29.74F VSB 3/4
$$

...NORTHEAST IOWA...


CITY           SKY/WX    TMP DP  RH WIND       PRES   REMARKS
WATERLOO       CLEAR     74  57  55 W7        29.78F
DUBUQUE        CLEAR     71  66  84 SW7       29.79S
DECORAH        CLEAR     72  57  60 CALM      29.75F
MASON CITY     PTCLDY    77  55  46 W15G24    29.78F
CHARLES CITY   CLEAR     72  57  60 SW8       29.77F
OELWEIN        CLEAR     72  59  64 SW7       29.79F
$$

...ELSEWHERE IN IOWA...


CITY           SKY/WX    TMP DP  RH WIND       PRES   REMARKS
DES MOINES     PTCLDY    78  58  49 W9        29.86R
IOWA CITY      CLEAR     76  65  68 SW7       29.82S
FORT DODGE     CLEAR     75  55  50 W10       29.84F
MARSHALLTOWN   CLEAR     73  59  61 W8        29.81F
CEDAR RAPIDS   CLEAR     74  65  73 SW8       29.80S
$$

...NORTHERN ILLINOIS...


CITY           SKY/WX    TMP DP  RH WIND       PRES   REMARKS
CHICAGO-OHARE  PTCLDY    73  63  70 SW5       29.80R
DUPAGE         PTCLDY    71  63  75 SW7       29.80R
CHICAGO-MIDWAY PTCLDY    74  67  78 SW8       29.81R
MOLINE         LGT RAIN  73  68  84 W8        29.81S
ROCKFORD       PTCLDY    73  64  73 SW7       29.80S
STERLING       CLEAR     73  64  73 W7        29.80S
PEORIA         MOCLDY    78  67  68 SW9       29.84R
$$

NOTE: "FAIR" INDICATES FEW OR NO CLOUDS BELOW 12,000 FEET WITH NO
SIGNIFICANT WEATHER AND/OR OBSTRUCTIONS TO VISIBILITY. WIND
SPEEDS ARE IN MILES-PER-HOUR.



USA.gov is the U.S. government's official web portal to all federal, state and local government web resources and services.